Weather in Surgut

Russia / Samara Oblast     53°55′22″N   51°11′57″E
temp.,
°C
wind,
m/s
gust,
m/s
humid.,
%
clouds,
%
prec.,
mm/h
press.,
hPa
HPBL,
m
28 june, tue
tue2801:00+16nnw4109615 0.2 1011378
04:00+14nne61090100 0.2 1012551
07:00+10nne610820 0.0 1015461
10:00+13nne68600 0.0 10151018
13:00+16n685535 0.0 10161819
16:00+14n686270 0.0 10171371
19:00+13n47658 0.1 10171042
22:00+9nnw22805 0.1 101825
29 june, wed
wed2901:00+7nnw22875 0.0 101826
04:00+5nnw22875 0.0 101829
07:00+9nnw497013 0.0 1019503
10:00+12n686675 0.0 10181194
13:00+14nne6864100 0.0 10181385
16:00+16nnw585788 0.0 10171745
19:00+16nnw48689 0.1 1016393
22:00+11nw22840 0.1 101613
30 june, thu
thu3001:00+9wnw22887 0.0 101515
04:00+9wnw2289100 0.0 101423
07:00+13wnw4876100 0.0 1012274
10:00+17nw5761100 0.0 1011957
13:00+18nw6856100 0.3 10101693
16:00+17nnw795948 0.8 10091483
19:00+14n598270 1.4 1010874
22:00+9nnw3890100 1.7 1012177
1 july, fri
fri101:00+8n512885 0.0 1012365
04:00+8nnw6128945 0.6 1012448
07:00+9n7148661 0.1 1013584
10:00+13nne7106710 0.1 1014951
13:00+15n6859100 0.0 10141599
16:00+16nne696564 0.1 10151465
19:00+15nnw587249 0.1 1015547
22:00+11nw338327 0.1 101538
2 july, sat
sat201:00+10nw32875 0.0 101533
04:00+9nw22895 0.0 101513
07:00+13nw36775 0.0 1014225
10:00+19nnw456319 0.0 1014668
13:00+21nnw455430 0.0 10141506
16:00+22nw445383 0.0 10131674
19:00+19nw477624 0.0 1013328
22:00+15nw118437 0.0 101310